AO-07 1 07530U 74089B 21126.44715632 -.00000031 00000-0 91837-4 0 9994 2 07530 101.8511 100.9995 0012611 102.2423 13.7053 12.53648604126706 UO-11 1 14781U 84021B 21126.43443742 .00000116 00000-0 20204-4 0 9999 2 14781 97.5930 128.3457 0007525 210.6920 149.3856 14.83279592 708 LO-19 1 20442U 90005G 21126.59267704 -.00000008 00000-0 13759-4 0 9996 2 20442 98.7379 81.6859 0010661 286.2605 73.7406 14.32984996634899 HUBBLE 1 20580U 90037B 21126.35231819 .00000516 00000-0 20265-4 0 9999 2 20580 28.4710 343.6482 0002576 332.4040 194.7824 15.09631504504698 MET-2/21 1 22782U 93055A 21126.50432557 .00000006 00000-0 -82197-5 0 9995 2 22782 82.5478 337.2116 0023383 51.1842 10.2234 13.83834903397722 AO-27 1 22825U 93061C 21126.47004791 .00000001 00000-0 18324-4 0 9995 2 22825 98.9200 143.0507 0008963 150.6145 209.5542 14.30113424440252 IO-26 1 22826U 93061D 21126.31050246 .00000008 00000-0 20992-4 0 9996 2 22826 98.9143 142.7999 0009677 139.7222 220.4678 14.30451932440203 FO-29 1 24278U 96046B 21126.44875635 -.00000014 00000-0 25276-4 0 9994 2 24278 98.5690 199.9852 0349240 258.4458 97.7286 13.53103485220818 NOAA-15 1 25338U 98030A 21126.75898924 .00000070 00000-0 47867-4 0 9998 2 25338 98.6856 155.6497 0011169 47.4701 312.7420 14.26027050195307 GO-32 1 25397U 98043D 21126.80086543 -.00000017 00000-0 11943-4 0 9997 2 25397 98.7680 72.4738 0001266 152.0364 208.0882 14.23707267185789 ISS 1 25544U 98067A 21126.89015661 .00000707 00000-0 20997-4 0 9993 2 25544 51.6442 186.9880 0002634 326.4969 204.9299 15.48982137282193 NO-44 1 26931U 01043C 21126.44115698 -.00000015 00000-0 25884-4 0 9997 2 26931 67.0533 28.8623 0006960 263.3492 96.6817 14.30616850 23349 SO-50 1 27607U 02058C 21126.55689193 .00000023 00000-0 23745-4 0 9995 2 27607 64.5542 106.4598 0035893 36.2704 324.0821 14.75742085988360 CO-55 1 27844U 03031E 21126.47859601 .00000065 00000-0 48675-4 0 9999 2 27844 98.6812 135.3269 0009531 193.5070 166.5854 14.22305828926055 CO-57 1 27848U 03031J 21126.24819062 .00000052 00000-0 43474-4 0 9993 2 27848 98.6869 135.6663 0009140 207.9106 152.1582 14.21883059925816 RS-22 1 27939U 03042A 21126.50234701 .00000158 00000-0 36981-4 0 9998 2 27939 98.1336 263.9058 0014009 56.6228 303.6319 14.66976821941377 NOAA-18 1 28654U 05018A 21126.79785443 .00000068 00000-0 61215-4 0 9991 2 28654 98.9965 191.4912 0014844 43.6757 316.5586 14.12603449822654 CO-58 1 28895U 05043F 21126.32172394 .00000153 00000-0 38269-4 0 9998 2 28895 98.0521 260.4956 0016267 347.9758 12.1054 14.63903189827842 Falconsat-3 1 30776U 07006E 21126.82534798 .00002847 00000-0 69898-4 0 9999 2 30776 35.4354 7.6942 0003538 258.5166 101.5165 15.40419238786680 CO-65 1 32785U 08021C 21126.52549102 .00000242 00000-0 31543-4 0 9994 2 32785 97.6086 107.0032 0013987 137.0257 223.2056 14.88699992706007 AAUSAT2 1 32788U 08021F 21126.40542576 .00001063 00000-0 10076-3 0 9991 2 32788 97.5045 122.8294 0013155 56.3464 303.9010 14.95533275707577 DO-64 1 32789U 08021G 21126.37173841 .00001772 00000-0 11636-3 0 9993 2 32789 97.3797 163.3557 0010014 289.6287 70.3861 15.08842887710487 CO-66 1 32791U 08021J 21126.49628086 .00000479 00000-0 53235-4 0 9990 2 32791 97.5693 112.9284 0014788 104.2996 255.9866 14.91373034706604 RS-30 1 32953U 08025A 21126.45716014 .00000028 00000-0 12906-3 0 9998 2 32953 82.5022 77.0452 0020740 68.9936 291.3362 12.43101552587765 PRISM 1 33493U 09002B 21126.43700911 .00001364 00000-0 12200-3 0 9992 2 33493 98.1856 86.9642 0016640 68.8998 291.3999 14.97604436668030 NOAA-19 1 33591U 09005A 21126.75702663 .00000073 00000-0 64918-4 0 9995 2 33591 99.1863 146.4240 0012987 247.7097 112.2697 14.12464885631037 SRMSAT 1 37841U 11058D 21126.54210148 .00000315 00000-0 27569-4 0 9997 2 37841 19.9708 194.3909 0011754 192.6828 197.3131 14.10693930493937 HRBE 1 37855U 11061F 21126.47883138 .00001087 00000-0 59915-4 0 9990 2 37855 101.7151 28.1244 0167165 195.4939 164.1122 15.07528631520320 RS-40 1 38735U 12041C 21126.32274737 .00000006 00000-0 -25017-4 0 9997 2 38735 82.4764 159.3667 0017343 173.3843 186.7469 12.42582800397959 ZACUBE-1 1 39417U 13066B 21126.43990340 .00000257 00000-0 38486-4 0 9991 2 39417 97.5911 112.9487 0057230 299.7401 59.8126 14.81495146402852 GOMX-1 1 39430U 13066Q 21126.44059732 .00000233 00000-0 51388-4 0 9998 2 39430 97.8133 51.9240 0149055 247.1425 111.3971 14.59595408396913 LO-74 1 39440U 13066AA 21126.49572728 .00000254 00000-0 41947-4 0 9992 2 39440 97.6729 97.9187 0080292 12.7865 347.5356 14.76222933401437 AO-73 1 39444U 13066AE 21126.44970114 .00000315 00000-0 44724-4 0 9996 2 39444 97.5820 115.3144 0056153 290.0701 69.4474 14.82397859401808 SPROUT 1 39770U 14029E 21126.52666660 .00000656 00000-0 76835-4 0 9991 2 39770 97.9108 237.8496 0008743 356.0204 4.0940 14.88358095377109 DTUSAT-2 1 40030U 14033W 21126.55549347 .00000285 00000-0 36318-4 0 9992 2 40030 97.9154 53.8133 0010903 318.7836 41.2557 14.88966578373599 EO-80 1 40032U 14033Y 21126.51748635 .00000266 00000-0 34329-4 0 9990 2 40032 97.9161 53.7813 0010830 320.0987 39.9433 14.88923177373051 HODOYOSHI-1 1 40299U 14070B 21126.83369483 .00000862 00000-0 37660-4 0 9994 2 40299 97.2868 201.5371 0014076 130.0405 7.2533 15.24654663361075 FIREBIRD FU3 1 40377U 15003B 21126.61552440 .00001589 00000-0 61720-4 0 9992 2 40377 99.0932 259.1108 0117413 313.4320 45.7185 15.22148708346432 FIREBIRD FU4 1 40378U 15003C 21126.39609072 .00001691 00000-0 65285-4 0 9996 2 40378 99.0936 258.9795 0117511 313.9935 45.1654 15.22198360346403 GRIFEX 1 40379U 15003D 21126.61092102 .00001075 00000-0 47486-4 0 9991 2 40379 99.0891 248.9182 0128420 345.0392 14.7052 15.17896002345840 NO-84 1 40654U 15025D 21124.61869988 +.00023720 +00000-0 +18569-3 0 28 2 40654 54.9821 248.2045 0080806 310.6606 48.7407 15.67209730 177 XW-2A 1 40903U 15049E 21126.85267383 .00003577 00000-0 77463-4 0 9992 2 40903 97.2396 181.4596 0013067 158.8691 261.6476 15.45029654316376 XW-2C 1 40906U 15049H 21126.79659494 .00001058 00000-0 57395-4 0 9990 2 40906 97.4867 129.6740 0014060 339.1387 98.1143 15.16672293311256 XW-2D 1 40907U 15049J 21126.79954338 .00001168 00000-0 62475-4 0 9993 2 40907 97.4864 129.4578 0013220 335.9925 101.0842 15.16983727311280 LILACSAT-2 1 40908U 15049K 21126.85457046 .00000751 00000-0 44425-4 0 9997 2 40908 97.5048 127.4157 0015379 350.0284 94.5039 15.14400551310932 XW-2E 1 40909U 15049L 21126.82178047 .00001530 00000-0 75423-4 0 9994 2 40909 97.4679 133.4367 0011947 321.7316 120.4215 15.19417481311616 XW-2F 1 40910U 15049M 21126.81051795 .00001605 00000-0 80023-4 0 9990 2 40910 97.4734 132.5011 0013116 321.1598 115.7512 15.18920521311409 XW-2B 1 40911U 15049N 21126.80006545 .00001161 00000-0 62275-4 0 9999 2 40911 97.4858 130.1447 0013098 337.0335 100.0874 15.16901342311178 DCBB 1 40912U 15049P 21126.81279498 .00001752 00000-0 81002-4 0 9995 2 40912 97.4468 136.8649 0012630 291.1692 154.1566 15.21441595311869 TW-1A 1 40928U 15051D 21126.83967748 .00004721 00000-0 10016-3 0 9994 2 40928 97.0802 152.7481 0011526 86.9824 359.7038 15.45458853315261 IO-86 1 40931U 15052B 21124.37236761 .00000696 00000-0 78670-5 0 9999 2 40931 5.9974 206.8138 0012615 136.5778 223.5607 14.76673668302771 ATHENOXAT-1 1 41168U 15077C 21126.60289669 .00002768 00000-0 10550-3 0 9995 2 41168 14.9891 208.6503 0011618 315.4524 83.2412 15.15569081298425 ChubuSat-2 1 41338U 16012B 21126.29300057 .00000388 00000-0 23331-4 0 9992 2 41338 31.0028 93.9891 0013589 76.0251 284.1895 15.00509117286261 ChubuSat-3 1 41339U 16012C 21126.91881576 .00000391 00000-0 23441-4 0 9998 2 41339 31.0114 87.2802 0013345 88.7311 271.4858 15.00658706286350 Horyu-4 1 41340U 16012D 21126.54900936 .00000573 00000-0 36218-4 0 9999 2 41340 31.0055 73.7184 0013735 117.2370 242.9667 15.01856797286481 e-st@r-II 1 41459U 16025D 21126.87774808 .00002401 00000-0 12070-3 0 9998 2 41459 98.1362 260.6199 0160321 202.1999 157.2214 15.07855280276156 AAUSAT4 1 41460U 16025E 21126.85843666 .00004672 00000-0 22025-3 0 9990 2 41460 98.1338 264.2695 0147687 186.7895 173.1341 15.10844908276432 LO-87 1 41557U 16033B 21126.85570343 .00001959 00000-0 71445-4 0 9991 2 41557 97.3908 221.0350 0013750 29.3006 92.0267 15.29299264275176 NuSat2 1 41558U 16033C 21126.77852315 .00001876 00000-0 64342-4 0 9991 2 41558 97.4013 224.5861 0012609 24.6409 74.3485 15.31390849275345 Lapan A3 1 41603U 16040E 21126.79294887 .00000273 00000-0 15712-4 0 9993 2 41603 97.2604 175.2989 0014242 142.6295 328.9565 15.20014614270255 Pratham 1 41783U 16059A 21126.13316327 .00000064 00000-0 21373-4 0 9992 2 41783 97.9684 177.6801 0033964 21.8686 338.3958 14.63133422246060 TY-1 1 41844U 16066D 21126.81369012 .00001267 00000-0 52533-4 0 9990 2 41844 97.4010 137.4640 0012901 287.4714 175.1565 15.25681513249557 CAS-2T 1 41847U 16066G 21126.80167707 .00000036 00000-0 16169-4 0 9997 2 41847 98.6047 185.7464 0364969 344.9084 14.1438 14.38182832235892 EO-88 1 42017U 17008BX 21126.25862482 .00001771 00000-0 67557-4 0 9999 2 42017 97.3183 194.6137 0004337 251.9090 108.1677 15.27977669234818 CAS-4B 1 42759U 17034B 21126.82724410 .00000374 00000-0 35872-4 0 9995 2 42759 43.0183 49.9184 0010039 269.4809 190.2496 15.10182685214852 CAS-4A 1 42761U 17034D 21126.87761240 .00000378 00000-0 36013-4 0 9997 2 42761 43.0188 48.7280 0010610 269.4788 140.8150 15.10264609214861 NIUSat 1 42766U 17036B 21126.38833491 .00001189 00000-0 53961-4 0 9990 2 42766 97.2542 173.8165 0013998 329.9884 30.0550 15.22613393214814 Aalto 1 1 42775U 17036L 21126.36001371 .00000974 00000-0 44788-4 0 9990 2 42775 97.2512 174.0586 0012515 329.8650 30.1866 15.22585013214790 URSA MAIOR 1 42776U 17036M 21126.36959635 .00001043 00000-0 47414-4 0 9993 2 42776 97.2526 174.5098 0012289 329.3673 30.6845 15.22837620214816 Max Valier Sat 1 42778U 17036P 21126.72958056 .00001114 00000-0 49534-4 0 9995 2 42778 97.2590 176.7019 0010781 331.3417 28.7227 15.23490576214931 Pegasus 1 42784U 17036V 21126.35988819 .00001436 00000-0 61531-4 0 9999 2 42784 97.2544 176.7902 0010578 336.6402 23.4354 15.24290148214942 NUDATSat 1 42787U 17036Y 21126.87759621 .00002565 00000-0 10195-3 0 9999 2 42787 97.2581 179.5614 0009560 328.0174 32.0480 15.26149554214994 SUCHAI 1 1 42788U 17036Z 21126.77404327 .00001683 00000-0 70075-4 0 9993 2 42788 97.2554 178.1260 0009935 332.4078 27.6632 15.25051282215130 SKCUBE 1 42789U 17036AA 21126.40241789 .00001621 00000-0 68110-4 0 9994 2 42789 97.2548 177.4981 0009919 334.5919 25.4830 15.24800000214982 VZLUSAT 1 1 42790U 17036AB 21126.41206685 .00001935 00000-0 77663-4 0 9994 2 42790 97.2579 179.0990 0009037 330.2934 29.7790 15.26124389215071 VENTA 1 1 42791U 17036AC 21126.38217517 .00001457 00000-0 61582-4 0 9999 2 42791 97.2544 177.4973 0009650 335.5826 24.4954 15.24758139214972 Robusta 1B 1 42792U 17036AD 21126.77138109 .00001572 00000-0 65688-4 0 9991 2 42792 97.2550 178.2187 0009460 333.5733 26.5021 15.25032536215077 D-SAT 1 42794U 17036AF 21126.49724159 .00000312 00000-0 32067-4 0 9994 2 42794 97.4642 148.6107 0125769 6.9555 353.3372 14.91541331210806 TechnoSat 1 42829U 17042E 21126.71914620 .00000301 00000-0 35493-4 0 9993 2 42829 97.4751 358.4614 0012689 289.1120 70.8725 14.91267607207461 QIKCOM-1 1 42983U 98067NF 21126.54414969 .00005796 00000-0 60558-4 0 9995 2 42983 51.6356 112.2102 0002661 172.1650 187.9388 15.66151556200838 AO-91 1 43017U 17073E 21126.53844288 .00000821 00000-0 67669-4 0 9996 2 43017 97.7099 32.1831 0256699 77.1966 285.7796 14.79471740186923 EcAMSat 1 43019U 98067NG 21126.58010722 .00019306 00000-0 11881-3 0 9995 2 43019 51.6378 80.9992 0002640 138.7605 221.3595 15.77235306283579 PICSAT 1 43132U 18004X 21126.47937774 .00001503 00000-0 61803-4 0 9997 2 43132 97.4102 201.4002 0009049 7.4921 352.6451 15.25704223184282 AO-92 1 43137U 18004AC 21126.47532500 .00001302 00000-0 54809-4 0 9995 2 43137 97.4082 200.9352 0008893 10.5729 349.5694 15.25127731184268 TianYi 2 1 43155U 18008A 21126.84829567 .00001500 00000-0 89858-4 0 9994 2 43155 97.4048 193.0641 0018904 110.6884 0.6678 15.12351911181787 Zhou Enlai 1 43156U 18008B 21126.83830439 .00001321 00000-0 80504-4 0 9994 2 43156 97.4095 192.8886 0016137 110.2000 1.4698 15.11950570181720 TianYi 6 1 43158U 18008D 21126.76953301 .00000954 00000-0 60090-4 0 9991 2 43158 97.4035 191.4557 0014839 107.9148 28.6592 15.11388290181648 S-Net D 1 43186U 18014G 21126.51470495 -.00000283 00000-0 -19576-4 0 9990 2 43186 97.6804 34.8505 0009736 216.9725 143.0827 14.97039692178023 S-Net B 1 43187U 18014H 21126.31408869 -.00000253 00000-0 -16938-4 0 9991 2 43187 97.6802 34.6214 0009724 217.6169 142.4374 14.97039313177999 S-Net A 1 43188U 18014J 21126.38094638 -.00000257 00000-0 -17292-4 0 9992 2 43188 97.6806 34.7299 0009708 217.3497 142.7051 14.97038066178003 S-Net C 1 43189U 18014K 21126.51510637 -.00000300 00000-0 -21042-4 0 9997 2 43189 97.6801 34.8119 0009752 216.9233 143.1318 14.97037816176576 FMN 1 1 43192U 18015A 21126.89435196 .00003279 00000-0 12323-3 0 9996 2 43192 97.4819 262.0804 0015448 34.5602 82.1173 15.27790150181248 Shaonian Xing 1 43199U 18015H 21126.90545623 .00002346 00000-0 90093-4 0 9997 2 43199 97.4601 259.3995 0016860 43.4208 74.3580 15.27349061181307 SurfSat 1 43614U 18070B 21126.68628967 .00003633 00000-0 85798-4 0 9994 2 43614 93.0265 288.6116 0015245 156.3956 203.8002 15.41786984148235 CP-7 DAVE 1 43615U 18070C 21126.69595222 .00003535 00000-0 84251-4 0 9997 2 43615 93.0268 288.5766 0015418 156.4385 203.7580 15.41511938148222 ELFIN-B 1 43616U 18070D 21126.40560925 .00005547 00000-0 12078-3 0 9991 2 43616 93.0224 288.5978 0015369 156.2854 203.9114 15.44185164148286 ELFIN-A 1 43617U 18070E 21126.44237251 .00006059 00000-0 12999-3 0 9990 2 43617 93.0273 289.4198 0014806 152.8074 207.3962 15.44623937148303 STARS-Me Mother 1 43640U 98067PQ 21126.31480827 .00099145 14858-4 29967-3 0 9996 2 43640 51.6252 90.5971 0004023 106.4817 253.6632 15.92083371147577 CubeBel 1 1 43666U 18083E 21126.82193318 .00001457 00000-0 72324-4 0 9991 2 43666 97.4597 155.7123 0013021 319.1248 146.2580 15.19223098139691 Changshagaoxin 1 43669U 18083H 21126.83460748 .00001196 00000-0 62079-4 0 9995 2 43669 97.4504 152.9256 0009445 316.7400 95.4718 15.18027542139576 Ten-Koh 1 43677U 18084G 21126.56337693 .00000231 00000-0 29584-4 0 9990 2 43677 97.9137 249.5090 0016329 167.9909 192.1702 14.90450055137068 PO-101 1 43678U 18084H 21126.86597500 .00000240 00000-0 29532-4 0 9992 2 43678 97.9169 251.9468 0009462 180.5798 179.5349 14.91742711137236 IRVINE 01 1 43693U 18088D 21126.57102084 .00002773 00000-0 10822-3 0 9994 2 43693 85.0371 222.7775 0017322 172.2520 187.8995 15.25273658138055 QO-100 1 43700U 18090A 21126.50278209 .00000133 00000-0 00000-0 0 9994 2 43700 0.0171 269.9039 0001113 147.9573 13.5428 1.00274074 8944 Reaktor Hello World 1 43743U 18096AA 21126.49211268 .00001695 00000-0 63271-4 0 9994 2 43743 97.3869 204.3255 0018770 67.9411 292.3820 15.28643103135724 MinXSS-2 1 43758U 18099A 21126.23184032 .00000237 00000-0 26193-4 0 9996 2 43758 97.6689 198.2968 0015363 184.1556 175.9540 14.96015762132205 AO-95 1 43770U 18099N 21126.42579825 .00000356 00000-0 37402-4 0 9996 2 43770 97.6670 197.5371 0014143 191.9994 168.0892 14.95287844132176 RANGE-B 1 43772U 18099Q 21126.46249620 .00000527 00000-0 52552-4 0 9992 2 43772 97.6749 198.5037 0014286 179.2217 180.9029 14.95574814132182 RANGE-A 1 43773U 18099R 21126.42833542 .00000061 00000-0 10708-4 0 9991 2 43773 97.6606 196.9045 0013494 178.7663 181.3593 14.95189680132167 MOVE-II 1 43780U 18099Y 21126.47087868 .00000960 00000-0 90904-4 0 9990 2 43780 97.6684 198.0678 0013389 188.0660 172.0348 14.95866002132198 SNUSat 2 1 43782U 18099AA 21126.46534024 .00000533 00000-0 53207-4 0 9993 2 43782 97.6665 197.9023 0012909 177.4682 182.6607 14.95529154132193 SnugLite 1 43784U 18099AC 21126.41030444 .00000866 00000-0 82847-4 0 9998 2 43784 97.6633 197.5861 0014968 185.8262 174.2788 14.95652569132206 ITASat 1 1 43786U 18099AE 21126.15262279 .00000685 00000-0 66793-4 0 9995 2 43786 97.6690 197.9184 0014986 186.0300 174.0743 14.95586604132169 EAGLET 1 1 43790U 18099AJ 21126.46462463 .00000287 00000-0 30668-4 0 9991 2 43790 97.6674 198.6192 0013292 189.0329 171.0655 14.95941340131931 ESEO 1 43792U 18099AL 21126.51013741 -.00000356 00000-0 -26828-4 0 9992 2 43792 97.6644 198.2885 0013060 185.9801 174.1266 14.95725557131996 CSIM 1 43793U 18099AM 21126.42458030 .00000886 00000-0 82888-4 0 9991 2 43793 97.6675 198.5229 0013017 180.4303 179.6910 14.96529151131983 Astrocast 0.1 1 43798U 18099AS 21126.15289258 .00001175 00000-0 10931-3 0 9991 2 43798 97.6685 198.4929 0012768 168.0946 192.0580 14.96139654132193 JO-97 1 43803U 18099AX 21126.45781549 .00000316 00000-0 33336-4 0 9992 2 43803 97.6643 197.9740 0015058 185.6834 174.4219 14.95821123132219 Suomi 100 1 43804U 18099AY 21126.46252190 .00000470 00000-0 47135-4 0 9992 2 43804 97.6643 197.9488 0015151 185.7364 174.3686 14.95794113132228 Al Farabi 2 1 43805U 18099AZ 21126.73715702 .00000487 00000-0 48441-4 0 9995 2 43805 97.6663 198.4181 0015005 184.1387 175.9716 14.96001052132273 CHOMPTT 1 43855U 18104G 21126.49438255 .00001175 00000-0 46899-4 0 9995 2 43855 85.0344 321.3248 0015228 306.1475 53.8358 15.23864454132705 ISAT 1 43879U 18111D 21126.47488997 .00000204 00000-0 22978-4 0 9999 2 43879 97.6865 34.4698 0011713 241.8801 118.1241 14.96585825126779 UWE-4 1 43880U 18111E 21126.53644598 .00000251 00000-0 26914-4 0 9995 2 43880 97.6889 34.9800 0010991 241.9391 118.0720 14.96825726128814 Sparrow 1 43881U 18111F 21126.24133282 .00000337 00000-0 34385-4 0 9993 2 43881 97.6909 34.8133 0010731 240.2193 119.7962 14.96887833128778 Lume 1 1 43908U 18111AJ 21126.76050846 .00001368 00000-0 55452-4 0 9997 2 43908 97.2375 22.7988 0022361 79.9818 280.3943 15.26095808131313 FO-98 1 43933U 19003B 21126.08153419 .00008637 00000-0 33753-3 0 9996 2 43933 97.1872 169.0895 0017068 176.6557 183.4799 15.25962406127646 FO-99 1 43937U 19003F 21126.41175785 .00001691 00000-0 68819-4 0 9992 2 43937 97.1805 171.2735 0024022 157.7038 202.5251 15.25574397127853 MYSat 1 1 44045U 18092F 21126.80359347 .00003807 00000-0 10515-3 0 9991 2 44045 51.6375 269.3700 0010636 56.3406 303.8591 15.39574408125040 AstroCast 0.2 1 44083U 19018F 21126.37738725 .00001404 00000-0 63541-4 0 9994 2 44083 97.3759 188.2418 0014459 117.3577 242.9133 15.22445934116491 AISTechSat 3 1 44103U 19018AB 21126.77961076 .00001275 00000-0 55484-4 0 9991 2 44103 97.3625 189.0067 0014647 126.6827 329.4706 15.23966019116664 AISat 1 1 44104U 19018AC 21126.47510758 .00001466 00000-0 47722-4 0 9994 2 44104 97.4267 203.6276 0057880 143.4794 217.0417 15.31952119117240 Raavana-1 1 44329U 98067QE 21126.42567851 .00031215 00000-0 22245-3 0 9992 2 44329 51.6324 141.3926 0004514 88.0800 272.0715 15.73523524107536 Uguisu 1 44330U 98067QF 21126.41064950 .00030503 00000-0 22123-3 0 9999 2 44330 51.6309 141.9607 0004562 88.3524 271.7997 15.73123839107502 NepaliSat-1 1 44331U 98067QG 21126.41941644 .00031205 00000-0 22296-3 0 9995 2 44331 51.6298 141.2666 0004333 89.6578 270.4917 15.73463384107529 Prox-1 1 44339U 19036A 21126.62651258 .00000959 00000-0 17575-3 0 9990 2 44339 23.9995 237.6309 0011167 80.9205 279.2549 14.53530206 99164 Oculus-ASR 1 44348U 19036K 21126.48222028 .00008923 00000-0 11886-3 0 9991 2 44348 28.5133 52.8934 0333847 173.0494 187.4879 15.11152253102557 Armadillo 1 44352U 19036P 21126.06481066 .00012111 00000-0 15261-3 0 9994 2 44352 28.5302 37.4144 0305448 196.6146 162.4247 15.18117562102624 NO-104 1 44354U 19036R 21126.09032860 .00010112 00000-0 13224-3 0 9999 2 44354 28.5294 49.2609 0328990 177.0376 183.2249 15.12609381102552 NO-103 1 44355U 19036S 21126.35449571 .00015534 00000-0 17269-3 0 9996 2 44355 28.5254 8.9885 0271664 242.7193 114.5491 15.27386791102985 CP9 1 44360U 19036X 21126.20945513 .00041115 -60611-5 29507-3 0 9995 2 44360 28.5057 314.4643 0205619 333.4887 25.5321 15.48243951103374 Move-IIb 1 44398U 19038N 21126.72712026 .00001756 00000-0 10102-3 0 9994 2 44398 97.5800 90.9310 0026203 92.9301 267.4928 15.13508381101452 SONATE 1 44400U 19038Q 21126.83460302 .00000689 00000-0 43109-4 0 9995 2 44400 97.5859 90.9445 0026552 92.8089 267.6185 15.12478970101443 BeeSat 9 1 44412U 19038AC 21126.41430578 .00001128 00000-0 66947-4 0 9998 2 44412 97.5846 90.7701 0023943 98.2564 262.1383 15.13166269101091 JAISAT-1 1 44419U 19038F 21126.46361524 .00001138 00000-0 66674-4 0 9992 2 44419 97.5851 91.3332 0022830 96.4568 263.9264 15.13651107101445 LightSail-2 1 44420U 19036AC 21126.54835301 .00001880 00000-0 33883-3 0 9999 2 44420 24.0059 220.1834 0016901 69.4065 290.8240 14.59885143 97484 Taurus 1 1 44530U 19059C 21126.51796563 .00000699 00000-0 20855-3 0 9991 2 44530 98.5496 216.5080 0012049 266.4543 93.5269 14.46022004 87021 Duchifat 3 1 44854U 19089C 21126.84176109 .00000555 00000-0 50753-4 0 9999 2 44854 36.9668 346.7103 0007166 170.2243 189.8616 14.99457280 76852 OPS-SAT 1 44878U 19092F 21126.48814389 .00001222 00000-0 66223-4 0 9999 2 44878 97.4750 310.5980 0012683 321.2923 38.7400 15.16432302 76476 TO-108 1 44881U 19093C 21126.45586693 .00000085 00000-0 17649-4 0 9999 2 44881 97.9247 205.7385 0016523 71.3582 288.9431 14.81445114 74513 FloripaSat 1 1 44885U 19093G 21126.50054645 .00000368 00000-0 52697-4 0 9992 2 44885 97.9259 206.3036 0016211 79.2005 281.1032 14.82271350 74557 RS-44 1 44909U 19096E 21126.48675215 .00000034 00000-0 89295-4 0 9995 2 44909 82.5180 140.6995 0217173 190.9311 168.7032 12.79709810 63494 SwampSat-2 1 45115U 19071E 21126.54626251 .00028293 00000-0 49273-3 0 9999 2 45115 51.6360 224.1978 0004403 151.4805 208.6426 15.50519173 70931 HO-107 1 45119U 19071J 21126.57333959 .00002275 00000-0 75761-4 0 9990 2 45119 51.6417 239.9197 0011613 137.3433 222.8454 15.35552331 70739 Phoenix 1 45258U 98067RB 21126.56345520 .00005667 00000-0 87129-4 0 9991 2 45258 51.6391 178.4086 0005842 89.8772 270.2888 15.55885356 68689 AztechSat-1 1 45261U 98067RE 21126.57084131 .00016241 00000-0 17962-3 0 9991 2 45261 51.6361 170.2025 0005578 94.4170 265.7461 15.63170805 68819 QARMAN 1 45263U 98067RG 21126.39654425 .00012030 00000-0 15146-3 0 9996 2 45263 51.6382 175.0522 0005816 95.2021 264.9636 15.60082229 68777 Quetzal 1 1 45598U 98067RL 21126.39091825 .00009480 00000-0 12884-3 0 9997 2 45598 51.6396 178.7819 0000308 223.9823 136.1145 15.58343543 57996 BY70-2 1 45857U 20042B 21126.50647092 .00001288 00000-0 19032-3 0 9999 2 45857 97.9841 202.6913 0010503 359.1742 0.9446 14.76916953 45353 UPMSat 2 1 46276U 20061E 21126.84686969 .00000540 00000-0 31137-4 0 9990 2 46276 97.4337 201.4586 0002760 117.5547 242.5967 15.16412604 37231 AmicalSat 1 46287U 20061R 21126.44059148 .00000604 00000-0 40570-4 0 9993 2 46287 97.4891 200.6255 0001621 207.9197 152.1946 15.10402403 37000 SALSAT 1 46495U 20068K 21126.59756985 -.00000062 00000-0 10249-7 0 9992 2 46495 97.6908 64.3491 0015573 208.7728 151.2614 15.03426803 33043 BY70-3 1 46839U 20079N 21126.88721743 .00003021 00000-0 95830-4 0 9995 2 46839 97.2418 201.5725 0007137 10.5903 102.0129 15.33428757 27831 SPOC 1 46921U 98067RR 21126.65933076 .00004853 00000-0 81862-4 0 9992 2 46921 51.6416 184.3328 0001935 309.3657 50.7162 15.53649339 28354 Bobcat-1 1 46922U 98067RS 21126.45780143 .00007321 00000-0 11402-3 0 9991 2 46922 51.6424 184.5004 0002040 323.7562 36.3290 15.55018323 28290 Neutron-1 1 46923U 98067RT 21126.41422720 .00005007 00000-0 84607-4 0 9999 2 46923 51.6414 185.6935 0002090 322.2906 37.7937 15.53523732 28359 CAPE 3 1 47309U 21002A 21126.63054574 .00001839 00000-0 94185-4 0 9996 2 47309 60.6838 88.2891 0036096 24.6172 335.6627 15.20627966 16528 AO-109 1 47311U 21002C 21126.36845127 .00001709 00000-0 86534-4 0 9996 2 47311 60.6850 88.7203 0030901 25.0392 335.2185 15.21523279 16466 MiTEE 1 1 47314U 21002F 21126.41287637 .00002173 00000-0 10276-3 0 9996 2 47314 60.6857 87.7799 0028827 15.2037 344.9909 15.22890265 16505 ExoCube 2 1 47319U 21002L 21126.26286402 .00001006 00000-0 56506-4 0 9994 2 47319 60.6833 89.3331 0031547 24.2145 336.0415 15.21152510 16414 UVSQ-SAT 1 47438U 21006AB 21126.38802206 .00000846 00000-0 51483-4 0 9999 2 47438 97.4905 188.3594 0011349 239.2994 120.7119 15.13048371 15691 YUSAT 1 1 47439U 21006AC 21126.38988453 .00000941 00000-0 56912-4 0 9997 2 47439 97.4907 188.3590 0011243 239.4128 120.5995 15.13026624 15691 SOMP 2b 1 47445U 21006AJ 21126.13346492 .00000812 00000-0 49777-4 0 9996 2 47445 97.4878 188.0466 0010917 244.4639 115.5464 15.12894371 15656 IDEASSat 1 47458U 21006AX 21126.73787117 .00000679 00000-0 42408-4 0 9994 2 47458 97.4969 188.7456 0010092 239.2234 120.8004 15.12757490 15743 RSP-01 1 47925U 98067SB 21126.42819202 .00005556 00000-0 10234-3 0 9991 2 47925 51.6423 188.7731 0001508 261.1945 98.8874 15.50807304 8259 TAUSAT-1 1 47926U 98067SC 21126.41649639 .00006073 00000-0 10930-3 0 9994 2 47926 51.6421 188.6955 0002628 256.5886 103.4811 15.51287322 8247 Tsuru 1 47927U 98067SD 21126.68707452 .00004829 00000-0 90237-4 0 9998 2 47927 51.6424 187.5021 0001538 255.7527 104.3291 15.50724778 8292 STARS-EC 1 47928U 98067SE 21126.43121048 .00005362 00000-0 99541-4 0 9993 2 47928 51.6419 188.7902 0006188 323.7853 36.2717 15.50663339 8237 Maya-2 1 47929U 98067SF 21126.42819122 .00004861 00000-0 90701-4 0 9992 2 47929 51.6424 188.7732 0001595 249.4030 110.6788 15.50754130 8216 OPUSAT-II 1 47930U 98067SG 21126.68373604 .00007082 00000-0 12736-3 0 9991 2 47930 51.6422 187.4804 0001423 257.6204 102.4626 15.51014633 8292 GuaraniSat-1 1 47931U 98067SH 21126.36330017 .00004889 00000-0 91140-4 0 9997 2 47931 51.6425 189.0901 0001620 247.3046 112.7772 15.50766714 8245 CubeSX-Sirius-HSE 1 47951U 21022V 21126.84106124 .00000486 00000-0 37741-4 0 9995 2 47951 97.5628 29.8260 0024111 92.3761 268.0208 15.05604202 6792 CubeSX-HSE 1 47952U 21022W 21126.83991097 .00000475 00000-0 37013-4 0 9996 2 47952 97.5628 29.8269 0023966 91.8139 268.5817 15.05642062 6799 KSU-Cubesat 1 47954U 21022Y 21126.30610565 .00000131 00000-0 13267-4 0 9992 2 47954 97.5626 29.3103 0023429 93.9241 266.4665 15.05714257 6437 GRBAlpha 1 47959U 21022AD 21126.57420219 .00000513 00000-0 39612-4 0 9997 2 47959 97.5626 29.5698 0023847 93.1006 267.2951 15.05638920 5571 Orbicraft-Zorkiy 1 47960U 21022AE 21126.83810904 .00000474 00000-0 36878-4 0 9999 2 47960 97.5644 29.8407 0023551 91.9410 268.4510 15.05703187 6305 STECCO 1 47962U 21022AG 21126.87494518 .00001106 00000-0 78390-4 0 9992 2 47962 97.5597 29.9249 0018538 89.2314 271.1052 15.06703365 5615 DIY-1 1 47963U 21022AH 21126.53478833 .00002058 00000-0 14075-3 0 9994 2 47963 97.5619 29.6098 0021567 87.4970 272.8726 15.07050468 5586 MO-110 1 47964U 21022AJ 21126.60187921 .00001652 00000-0 11406-3 0 9992 2 47964 97.5619 29.6741 0021449 87.8781 272.4938 15.06968988 5579 /EX
